| time (UTC) | temp F | wind direction | speed knots | gust knots | rain 1hr in | rain 24hr in | rain mn in | humidity % | barometer mb |
| 20260902003047 | 82 | 175 | 16.5 | 21.7 | 0.00 | 0.00 | 0.00 | 47 | 1014.3 |
| 20260902001547 | 83 | 349 | 13.9 | 19.1 | 0.00 | 0.00 | 0.00 | 46 | 1014.2 |
| 20260902000051 | 82 | 360 | 13.9 | 20.0 | 0.00 | 0.00 | 0.00 | 46 | 1014.3 |
| 20260901234556 | 83 | 156 | 14.8 | 20.0 | 0.00 | 0.00 | 0.00 | 48 | 1014.1 |
| 20260901233045 | 84 | 360 | 14.8 | 19.1 | 0.00 | 0.00 | 0.00 | 47 | 1013.9 |
| 20260901231544 | 87 | 344 | 15.6 | 20.0 | 0.00 | 0.00 | 0.00 | 39 | 1013.7 |
| 20260901230047 | 86 | 338 | 17.4 | 24.3 | 0.00 | 0.00 | 0.00 | 41 | 1013.4 |
| 20260901224543 | 89 | 360 | 13.0 | 20.0 | 0.00 | 0.00 | 0.00 | 37 | 1013.3 |
| 20260901223041 | 92 | 180 | 6.1 | 14.8 | 0.00 | 0.00 | 0.00 | 30 | 1013.5 |
| 20260901221606 | 92 | 100 | 5.2 | 12.2 | 0.00 | 0.00 | 0.00 | 31 | 1013.4 |
| 20260901220040 | 93 | 168 | 12.2 | 17.4 | 0.00 | 0.00 | 0.00 | 31 | 1013.2 |
| 20260901214540 | 97 | 270 | 6.1 | 13.9 | 0.00 | 0.00 | 0.00 | 23 | 1013.2 |
| 20260901213059 | 100 | 219 | 12.2 | 16.5 | 0.00 | 0.00 | 0.00 | 22 | 1013.1 |
| 20260901211543 | 101 | 234 | 2.6 | 12.2 | 0.00 | 0.00 | 0.00 | 23 | 1013.3 |
| 20260901210038 | 98 | 247 | 1.7 | 8.7 | 0.00 | 0.00 | 0.00 | 24 | 1013.5 |
| 20260901204533 | 97 | 247 | 0.0 | 13.0 | 0.00 | 0.00 | 0.00 | 26 | 1013.8 |
| 20260901203041 | 98 | 360 | 7.0 | 13.9 | 0.00 | 0.00 | 0.00 | 23 | 1014.2 |
| 20260901201527 | 96 | 285 | 2.6 | 10.4 | 0.00 | 0.00 | 0.00 | 25 | 1014.4 |
| 20260901200038 | 95 | 227 | 0.0 | 5.2 | 0.00 | 0.00 | 0.00 | 27 | 1014.6 |
| 20260901194524 | 93 | 360 | 5.2 | 8.7 | 0.00 | 0.00 | 0.00 | 28 | 1014.8 |
| 20260901193025 | 98 | 360 | 8.7 | 11.3 | 0.00 | 0.00 | 0.00 | 25 | 1015.0 |
| 20260901191523 | 95 | 281 | 3.5 | 8.7 | 0.00 | 0.00 | 0.00 | 26 | 1015.4 |
| 20260901190021 | 95 | 294 | 3.5 | 13.0 | 0.00 | 0.00 | 0.00 | 28 | 1015.5 |
| 20260901184517 | 96 | 360 | 3.5 | 7.0 | 0.00 | 0.00 | 0.00 | 27 | 1015.9 |
| 20260901183012 | 93 | 220 | 1.7 | 10.4 | 0.00 | 0.00 | 0.00 | 30 | 1016.2 |
| 20260901181512 | 93 | 360 | 5.2 | 8.7 | 0.00 | 0.00 | 0.00 | 30 | 1016.5 |
| 20260901180005 | 92 | 360 | 5.2 | 8.7 | 0.00 | 0.00 | 0.00 | 31 | 1016.7 |
| 20260901174502 | 91 | 306 | 0.9 | 10.4 | 0.00 | 0.00 | 0.00 | 32 | 1016.7 |
| 20260901173058 | 92 | 360 | 2.6 | 9.6 | 0.00 | 0.00 | 0.00 | 32 | 1016.9 |
| 20260901171605 | 92 | 264 | 3.5 | 9.6 | 0.00 | 0.00 | 0.00 | 32 | 1016.9 |
| 20260901170052 | 90 | 193 | 2.6 | 7.8 | 0.00 | 0.00 | 0.00 | 37 | 1017.0 |
| 20260901164549 | 88 | 283 | 0.9 | 4.3 | 0.00 | 0.00 | 0.00 | 35 | 1017.0 |
| 20260901163046 | 89 | 262 | 0.9 | 3.5 | 0.00 | 0.00 | 0.00 | 35 | 1017.1 |
| 20260901161542 | 88 | 170 | 3.5 | 7.0 | 0.00 | 0.00 | 0.00 | 38 | 1017.1 |
| 20260901160038 | 86 | 211 | 0.9 | 5.2 | 0.00 | 0.00 | 0.00 | 38 | 1017.0 |
| 20260901154534 | 86 | 215 | 1.7 | 6.1 | 0.00 | 0.00 | 0.00 | 39 | 1017.0 |
| 20260901153030 | 86 | 209 | 2.6 | 7.8 | 0.00 | 0.00 | 0.00 | 41 | 1017.0 |
| 20260901151525 | 85 | 349 | 2.6 | 7.8 | 0.00 | 0.00 | 0.00 | 43 | 1017.1 |
| 20260901150021 | 83 | 360 | 5.2 | 8.7 | 0.00 | 0.00 | 0.00 | 44 | 1017.2 |
| 20260901144518 | 81 | 332 | 5.2 | 9.6 | 0.00 | 0.00 | 0.00 | 47 | 1017.2 |
| 20260901143012 | 79 | 346 | 7.0 | 10.4 | 0.00 | 0.00 | 0.00 | 49 | 1017.2 |
| 20260901141508 | 78 | 360 | 6.1 | 8.7 | 0.00 | 0.00 | 0.00 | 52 | 1017.3 |
| 20260901140004 | 76 | 344 | 7.8 | 11.3 | 0.00 | 0.00 | 0.00 | 55 | 1017.1 |
| 20260901134613 | 74 | 360 | 9.6 | 12.2 | 0.00 | 0.00 | 0.00 | 56 | 1017.0 |
| 20260901133054 | 73 | 335 | 7.0 | 11.3 | 0.00 | 0.00 | 0.00 | 58 | 1016.9 |
| 20260901131554 | 72 | 360 | 6.1 | 11.3 | 0.00 | 0.00 | 0.00 | 60 | 1016.6 |
| 20260901130047 | 72 | 322 | 8.7 | 11.3 | 0.00 | 0.00 | 0.00 | 59 | 1016.4 |
| 20260901124544 | 72 | 360 | 8.7 | 11.3 | 0.00 | 0.00 | 0.00 | 58 | 1016.1 |
| 20260901123041 | 73 | 360 | 7.8 | 11.3 | 0.00 | 0.00 | 0.00 | 58 | 1016.0 |
| 20260901121543 | 73 | 360 | 5.2 | 9.6 | 0.00 | 0.00 | 0.00 | 57 | 1015.9 |
| 20260901120043 | 73 | 360 | 7.0 | 10.4 | 0.00 | 0.00 | 0.00 | 58 | 1015.9 |
| 20260901114531 | 74 | 360 | 4.3 | 7.8 | 0.00 | 0.00 | 0.00 | 56 | 1015.9 |
| 20260901113030 | 74 | 360 | 4.3 | 7.8 | 0.00 | 0.00 | 0.00 | 56 | 1015.8 |
| 20260901111529 | 74 | 360 | 7.8 | 9.6 | 0.00 | 0.00 | 0.00 | 55 | 1015.8 |
| 20260901110032 | 75 | 360 | 7.0 | 9.6 | 0.00 | 0.00 | 0.00 | 55 | 1015.6 |
| 20260901104531 | 75 | 360 | 8.7 | 12.2 | 0.00 | 0.00 | 0.00 | 54 | 1015.4 |
| 20260901103025 | 75 | 360 | 7.0 | 11.3 | 0.00 | 0.00 | 0.00 | 54 | 1015.6 |
| 20260901101523 | 75 | 360 | 6.1 | 9.6 | 0.00 | 0.00 | 0.00 | 54 | 1015.6 |
| 20260901100022 | 75 | 360 | 6.1 | 8.7 | 0.00 | 0.00 | 0.00 | 54 | 1015.7 |
| 20260901094521 | 75 | 360 | 5.2 | 8.7 | 0.00 | 0.00 | 0.00 | 54 | 1015.6 |
| 20260901093018 | 75 | 360 | 4.3 | 7.0 | 0.00 | 0.00 | 0.00 | 54 | 1015.5 |
| 20260901091516 | 76 | 360 | 4.3 | 7.8 | 0.00 | 0.00 | 0.00 | 54 | 1015.5 |
| 20260901090017 | 76 | 360 | 5.2 | 9.6 | 0.00 | 0.00 | 0.00 | 53 | 1015.5 |
| 20260901084513 | 76 | 360 | 5.2 | 7.8 | 0.00 | 0.00 | 0.00 | 53 | 1015.6 |
| 20260901083021 | 76 | 355 | 1.7 | 3.5 | 0.00 | 0.00 | 0.00 | 53 | 1015.5 |
| 20260901081510 | 77 | 360 | 5.2 | 8.7 | 0.00 | 0.00 | 0.00 | 52 | 1015.4 |
| 20260901080008 | 77 | 339 | 2.6 | 8.7 | 0.00 | 0.00 | 0.00 | 52 | 1015.3 |
| 20260901074508 | 77 | 332 | 2.6 | 5.2 | 0.00 | 0.00 | 0.00 | 51 | 1015.4 |
| 20260901073004 | 77 | 360 | 0.9 | 3.5 | 0.00 | 0.00 | 0.00 | 51 | 1015.5 |
| 20260901071502 | 78 | 360 | 2.6 | 4.3 | 0.00 | 0.00 | 0.00 | 49 | 1015.7 |
| 20260901070001 | 79 | 360 | 1.7 | 3.5 | 0.00 | 0.00 | 0.00 | 48 | 1015.6 |
| 20260901064600 | 78 | 360 | 1.7 | 8.7 | 0.00 | 0.00 | 0.00 | 48 | 1015.5 |
| 20260901063058 | 79 | 360 | 2.6 | 3.5 | 0.00 | 0.00 | 0.00 | 48 | 1015.7 |
| 20260901061557 | 80 | 360 | 3.5 | 7.8 | 0.00 | 0.00 | 0.00 | 46 | 1015.7 |
| 20260901060051 | 81 | 227 | 3.5 | 7.0 | 0.00 | 0.00 | 0.00 | 45 | 1015.7 |
| 20260901054550 | 81 | 238 | 1.7 | 5.2 | 0.00 | 0.00 | 0.00 | 44 | 1015.6 |
| 20260901053048 | 82 | 227 | 2.6 | 7.0 | 0.00 | 0.00 | 0.00 | 43 | 1015.5 |
| 20260901051545 | 82 | 219 | 0.9 | 7.0 | 0.00 | 0.00 | 0.00 | 43 | 1015.5 |
| 20260901050042 | 82 | 240 | 1.7 | 7.8 | 0.00 | 0.00 | 0.00 | 41 | 1015.3 |
| 20260901044546 | 83 | 241 | 5.2 | 13.0 | 0.00 | 0.00 | 0.00 | 41 | 1015.1 |
| 20260901043042 | 83 | 221 | 2.6 | 8.7 | 0.00 | 0.00 | 0.00 | 40 | 1015.1 |
| 20260901041555 | 84 | 217 | 6.1 | 11.3 | 0.00 | 0.00 | 0.00 | 40 | 1015.1 |
| 20260901040040 | 84 | 215 | 5.2 | 13.0 | 0.00 | 0.00 | 0.00 | 39 | 1015.1 |
| 20260901034540 | 85 | 202 | 7.0 | 11.3 | 0.00 | 0.00 | 0.00 | 39 | 1015.0 |
| 20260901033039 | 85 | 192 | 7.0 | 12.2 | 0.00 | 0.00 | 0.00 | 40 | 1014.9 |
| 20260901031539 | 86 | 194 | 7.0 | 16.5 | 0.00 | 0.00 | 0.00 | 40 | 1014.7 |
| 20260901030038 | 87 | 204 | 5.2 | 16.5 | 0.00 | 0.00 | 0.00 | 38 | 1014.2 |
| 20260901024540 | 87 | 192 | 7.8 | 20.0 | 0.00 | 0.00 | 0.00 | 38 | 1013.8 |
| 20260901023043 | 88 | 208 | 12.2 | 22.6 | 0.00 | 0.00 | 0.00 | 36 | 1013.1 |
| 20260901021538 | 90 | 185 | 11.3 | 21.7 | 0.00 | 0.00 | 0.00 | 33 | 1012.6 |
| 20260901020036 | 91 | 221 | 6.1 | 15.6 | 0.00 | 0.00 | 0.00 | 28 | 1012.0 |
| 20260901014536 | 91 | 225 | 6.1 | 12.2 | 0.00 | 0.00 | 0.00 | 28 | 1011.6 |
| 20260901013034 | 92 | 232 | 5.2 | 13.9 | 0.00 | 0.00 | 0.00 | 28 | 1011.2 |
| 20260901011534 | 92 | 215 | 3.5 | 9.6 | 0.00 | 0.00 | 0.00 | 27 | 1011.1 |
| 20260901010033 | 93 | 211 | 3.5 | 8.7 | 0.00 | 0.00 | 0.00 | 24 | 1011.0 |
| 20260901004533 | 94 | 207 | 3.5 | 9.6 | 0.00 | 0.00 | 0.00 | 24 | 1010.9 |